| time (UTC) | temp F | wind direction | speed MPH | gust MPH | rain 1hr in | rain 24hr in | rain mn in | humidity % | barometer mb |
| 20260901163251 | 84 | 188 | 9.0 | 17.0 | 0.00 | 0.00 | 0.00 | 57 | 1017.6 |
| 20260901163204 | 84 | 215 | 10.0 | 17.0 | 0.00 | 0.00 | 0.00 | 57 | 1017.6 |
| 20260901162658 | 83 | 202 | 6.0 | 12.0 | 0.00 | 0.00 | 0.00 | 59 | 1017.6 |
| 20260901162310 | 83 | 171 | 7.0 | 12.0 | 0.00 | 0.00 | 0.00 | 60 | 1017.6 |
| 20260901162205 | 83 | 166 | 8.0 | 12.0 | 0.00 | 0.00 | 0.00 | 58 | 1017.7 |
| 20260901161655 | 82 | 190 | 9.0 | 13.0 | 0.00 | 0.00 | 0.00 | 59 | 1017.7 |
| 20260901161252 | 82 | 195 | 8.0 | 15.0 | 0.00 | 0.00 | 0.00 | 58 | 1017.7 |
| 20260901161204 | 82 | 187 | 8.0 | 15.0 | 0.00 | 0.00 | 0.00 | 59 | 1017.7 |
| 20260901160714 | 82 | 211 | 9.0 | 15.0 | 0.00 | 0.00 | 0.00 | 59 | 1017.7 |
| 20260901160250 | 82 | 175 | 8.0 | 12.0 | 0.00 | 0.00 | 0.00 | 61 | 1017.7 |
| 20260901160203 | 82 | 194 | 8.0 | 13.0 | 0.00 | 0.00 | 0.00 | 61 | 1017.7 |
| 20260901155653 | 81 | 172 | 6.0 | 12.0 | 0.00 | 0.00 | 0.00 | 61 | 1017.7 |
| 20260901155310 | 81 | 177 | 6.0 | 14.0 | 0.00 | 0.00 | 0.00 | 61 | 1017.7 |
| 20260901155201 | 81 | 177 | 5.0 | 14.0 | 0.00 | 0.00 | 0.00 | 61 | 1017.7 |
| 20260901154650 | 80 | 189 | 10.0 | 14.0 | 0.00 | 0.00 | 0.00 | 63 | 1017.8 |
| 20260901154306 | 80 | 172 | 11.0 | 13.0 | 0.00 | 0.00 | 0.00 | 62 | 1017.8 |
| 20260901154159 | 80 | 167 | 10.0 | 13.0 | 0.00 | 0.00 | 0.00 | 64 | 1017.8 |
| 20260901153653 | 79 | 203 | 8.0 | 13.0 | 0.00 | 0.00 | 0.00 | 64 | 1017.7 |
| 20260901153307 | 79 | 180 | 8.0 | 12.0 | 0.00 | 0.00 | 0.00 | 65 | 1017.8 |
| 20260901153203 | 79 | 169 | 7.0 | 14.0 | 0.00 | 0.00 | 0.00 | 65 | 1017.8 |
| 20260901152654 | 78 | 180 | 8.0 | 12.0 | 0.00 | 0.00 | 0.00 | 67 | 1017.8 |
| 20260901152251 | 78 | 202 | 8.0 | 12.0 | 0.00 | 0.00 | 0.00 | 67 | 1017.9 |
| 20260901152204 | 78 | 192 | 8.0 | 12.0 | 0.00 | 0.00 | 0.00 | 66 | 1017.9 |
| 20260901151654 | 78 | 192 | 8.0 | 12.0 | 0.00 | 0.00 | 0.00 | 67 | 1017.9 |
| 20260901151250 | 78 | 182 | 8.0 | 12.0 | 0.00 | 0.00 | 0.00 | 68 | 1018.0 |
| 20260901151202 | 78 | 179 | 7.0 | 11.0 | 0.00 | 0.00 | 0.00 | 67 | 1017.9 |
| 20260901150651 | 77 | 157 | 8.0 | 11.0 | 0.00 | 0.00 | 0.00 | 67 | 1017.8 |
| 20260901150327 | 78 | 171 | 5.0 | 13.0 | 0.00 | 0.00 | 0.00 | 68 | 1017.9 |
| 20260901150159 | 77 | 136 | 6.0 | 13.0 | 0.00 | 0.00 | 0.00 | 69 | 1017.9 |
| 20260901145708 | 77 | 195 | 7.0 | 13.0 | 0.00 | 0.00 | 0.00 | 69 | 1017.8 |
| 20260901145306 | 76 | 142 | 6.0 | 10.0 | 0.00 | 0.00 | 0.00 | 70 | 1017.8 |
| 20260901145156 | 76 | 136 | 5.0 | 9.0 | 0.00 | 0.00 | 0.00 | 70 | 1017.8 |
| 20260901144650 | 75 | 169 | 6.0 | 9.0 | 0.00 | 0.00 | 0.00 | 73 | 1017.9 |
| 20260901144303 | 75 | 149 | 4.0 | 9.0 | 0.00 | 0.00 | 0.00 | 73 | 1018.0 |
| 20260901144200 | 75 | 134 | 5.0 | 9.0 | 0.00 | 0.00 | 0.00 | 75 | 1018.0 |
| 20260901143708 | 74 | 145 | 5.0 | 8.0 | 0.00 | 0.00 | 0.00 | 75 | 1018.0 |
| 20260901143305 | 73 | 190 | 4.0 | 8.0 | 0.00 | 0.00 | 0.00 | 75 | 1018.1 |
| 20260901143218 | 73 | 205 | 5.0 | 8.0 | 0.00 | 0.00 | 0.00 | 76 | 1018.0 |
| 20260901142707 | 73 | 211 | 4.0 | 9.0 | 0.00 | 0.00 | 0.00 | 77 | 1018.1 |
| 20260901142305 | 72 | 187 | 7.0 | 9.0 | 0.00 | 0.00 | 0.00 | 80 | 1018.1 |
| 20260901142155 | 72 | 195 | 7.0 | 9.0 | 0.00 | 0.00 | 0.00 | 80 | 1018.1 |
| 20260901141705 | 71 | 196 | 5.0 | 8.0 | 0.00 | 0.00 | 0.00 | 83 | 1018.0 |
| 20260901141302 | 71 | 204 | 5.0 | 7.0 | 0.00 | 0.00 | 0.00 | 83 | 1018.0 |
| 20260901141155 | 71 | 184 | 4.0 | 7.0 | 0.00 | 0.00 | 0.00 | 85 | 1018.0 |
| 20260901140706 | 70 | 201 | 5.0 | 7.0 | 0.00 | 0.00 | 0.00 | 84 | 1018.0 |
| 20260901140302 | 69 | 238 | 4.0 | 7.0 | 0.00 | 0.00 | 0.00 | 86 | 1018.0 |
| 20260901140215 | 69 | 207 | 5.0 | 7.0 | 0.00 | 0.00 | 0.00 | 87 | 1018.1 |
| 20260901135704 | 69 | 200 | 4.0 | 6.0 | 0.00 | 0.00 | 0.00 | 87 | 1018.1 |
| 20260901135258 | 68 | 234 | 3.0 | 6.0 | 0.00 | 0.00 | 0.00 | 89 | 1018.1 |
| 20260901135155 | 68 | 239 | 3.0 | 7.0 | 0.00 | 0.00 | 0.00 | 89 | 1018.1 |
| 20260901134705 | 68 | 219 | 4.0 | 7.0 | 0.00 | 0.00 | 0.00 | 91 | 1018.0 |
| 20260901134301 | 67 | 232 | 4.0 | 7.0 | 0.00 | 0.00 | 0.00 | 92 | 1018.0 |
| 20260901134152 | 67 | 254 | 4.0 | 7.0 | 0.00 | 0.00 | 0.00 | 92 | 1018.0 |
| 20260901133702 | 67 | 198 | 3.0 | 6.0 | 0.00 | 0.00 | 0.00 | 92 | 1018.0 |
| 20260901133259 | 66 | 178 | 5.0 | 6.0 | 0.00 | 0.00 | 0.00 | 93 | 1017.9 |
| 20260901133213 | 66 | 178 | 4.0 | 6.0 | 0.00 | 0.00 | 0.00 | 93 | 1017.9 |
| 20260901132721 | 66 | 194 | 4.0 | 6.0 | 0.00 | 0.00 | 0.00 | 93 | 1017.8 |
| 20260901132256 | 65 | 200 | 3.0 | 5.0 | 0.00 | 0.00 | 0.00 | 93 | 1017.8 |
| 20260901132209 | 65 | 194 | 3.0 | 5.0 | 0.00 | 0.00 | 0.00 | 94 | 1017.8 |
| 20260901131718 | 65 | 238 | 4.0 | 5.0 | 0.00 | 0.00 | 0.00 | 95 | 1017.9 |
| 20260901131254 | 64 | 242 | 3.0 | 7.0 | 0.00 | 0.00 | 0.00 | 95 | 1017.9 |
| 20260901131206 | 64 | 238 | 3.0 | 7.0 | 0.00 | 0.00 | 0.00 | 96 | 1017.9 |
| 20260901130656 | 64 | 231 | 4.0 | 7.0 | 0.00 | 0.00 | 0.00 | 96 | 1018.0 |
| 20260901130253 | 63 | 235 | 4.0 | 5.0 | 0.00 | 0.00 | 0.00 | 96 | 1017.9 |
| 20260901130202 | 63 | 236 | 4.0 | 5.0 | 0.00 | 0.00 | 0.00 | 96 | 1017.8 |
| 20260901125656 | 63 | 220 | 3.0 | 5.0 | 0.00 | 0.00 | 0.00 | 96 | 1017.7 |
| 20260901125254 | 62 | 221 | 4.0 | 6.0 | 0.00 | 0.00 | 0.00 | 96 | 1017.7 |
| 20260901125206 | 62 | 227 | 4.0 | 6.0 | 0.00 | 0.00 | 0.00 | 96 | 1017.7 |
| 20260901124656 | 62 | 217 | 4.0 | 5.0 | 0.00 | 0.00 | 0.00 | 95 | 1017.5 |
| 20260901124253 | 62 | 219 | 4.0 | 5.0 | 0.00 | 0.00 | 0.00 | 95 | 1017.5 |
| 20260901124206 | 62 | 219 | 4.0 | 5.0 | 0.00 | 0.00 | 0.00 | 95 | 1017.4 |
| 20260901123714 | 61 | 252 | 4.0 | 5.0 | 0.00 | 0.00 | 0.00 | 95 | 1017.4 |
| 20260901123309 | 61 | 248 | 4.0 | 5.0 | 0.00 | 0.00 | 0.00 | 95 | 1017.4 |
| 20260901123221 | 61 | 244 | 4.0 | 5.0 | 0.00 | 0.00 | 0.00 | 95 | 1017.4 |
| 20260901122709 | 62 | 250 | 3.0 | 6.0 | 0.00 | 0.00 | 0.00 | 95 | 1017.4 |
| 20260901122326 | 62 | 248 | 3.0 | 7.0 | 0.00 | 0.00 | 0.00 | 94 | 1017.5 |
| 20260901122158 | 62 | 261 | 3.0 | 7.0 | 0.00 | 0.00 | 0.00 | 94 | 1017.4 |
| 20260901121708 | 62 | 262 | 4.0 | 6.0 | 0.00 | 0.00 | 0.00 | 94 | 1017.4 |
| 20260901121306 | 62 | 246 | 4.0 | 7.0 | 0.00 | 0.00 | 0.00 | 94 | 1017.3 |
| 20260901121158 | 62 | 241 | 4.0 | 7.0 | 0.00 | 0.00 | 0.00 | 94 | 1017.3 |
| 20260901120651 | 62 | 253 | 5.0 | 7.0 | 0.00 | 0.00 | 0.00 | 94 | 1017.3 |
| 20260901120305 | 62 | 246 | 5.0 | 7.0 | 0.00 | 0.00 | 0.00 | 94 | 1017.2 |
| 20260901120202 | 62 | 246 | 5.0 | 6.0 | 0.00 | 0.00 | 0.00 | 94 | 1017.2 |
| 20260901115652 | 62 | 232 | 3.0 | 7.0 | 0.00 | 0.00 | 0.00 | 94 | 1017.1 |
| 20260901115309 | 62 | 236 | 4.0 | 8.0 | 0.00 | 0.00 | 0.00 | 94 | 1017.2 |
| 20260901115202 | 62 | 254 | 5.0 | 8.0 | 0.00 | 0.00 | 0.00 | 94 | 1017.2 |
| 20260901114651 | 62 | 261 | 6.0 | 8.0 | 0.00 | 0.00 | 0.00 | 94 | 1017.2 |
| 20260901114308 | 62 | 228 | 4.0 | 7.0 | 0.00 | 0.00 | 0.00 | 94 | 1017.2 |
| 20260901114200 | 62 | 211 | 4.0 | 9.0 | 0.00 | 0.00 | 0.00 | 93 | 1017.2 |
| 20260901113651 | 62 | 263 | 3.0 | 9.0 | 0.00 | 0.00 | 0.00 | 93 | 1017.3 |
| 20260901113308 | 63 | 281 | 7.0 | 9.0 | 0.00 | 0.00 | 0.00 | 93 | 1017.1 |
| 20260901113159 | 62 | 271 | 6.0 | 8.0 | 0.00 | 0.00 | 0.00 | 93 | 1017.1 |
| 20260901112728 | 63 | 271 | 4.0 | 7.0 | 0.00 | 0.00 | 0.00 | 93 | 1017.1 |
| 20260901112305 | 63 | 240 | 5.0 | 6.0 | 0.00 | 0.00 | 0.00 | 92 | 1017.0 |
| 20260901112152 | 63 | 240 | 4.0 | 5.0 | 0.00 | 0.00 | 0.00 | 92 | 1017.0 |
| 20260901111703 | 63 | 262 | 4.0 | 6.0 | 0.00 | 0.00 | 0.00 | 93 | 1017.0 |
| 20260901111321 | 63 | 251 | 0.0 | 2.0 | 0.00 | 0.00 | 0.00 | 93 | 1017.0 |
| 20260901111156 | 63 | 277 | 0.0 | 2.0 | 0.00 | 0.00 | 0.00 | 93 | 1017.0 |
| 20260901110708 | 63 | 277 | 0.0 | 3.0 | 0.00 | 0.00 | 0.00 | 93 | 1017.0 |
| 20260901110304 | 63 | 277 | 2.0 | 3.0 | 0.00 | 0.00 | 0.00 | 92 | 1016.9 |
| 20260901110154 | 63 | 277 | 2.0 | 3.0 | 0.00 | 0.00 | 0.00 | 92 | 1016.9 |
| 20260901105704 | 63 | 277 | 2.0 | 3.0 | 0.00 | 0.00 | 0.00 | 92 | 1017.0 |
| 20260901105301 | 63 | 246 | 2.0 | 3.0 | 0.00 | 0.00 | 0.00 | 92 | 1016.9 |
| 20260901105153 | 63 | 213 | 2.0 | 3.0 | 0.00 | 0.00 | 0.00 | 92 | 1016.9 |
| 20260901104702 | 63 | 148 | 0.0 | 2.0 | 0.00 | 0.00 | 0.00 | 92 | 1016.9 |
| 20260901104259 | 64 | 148 | 0.0 | 5.0 | 0.00 | 0.00 | 0.00 | 92 | 1016.8 |
| 20260901104152 | 64 | 148 | 0.0 | 5.0 | 0.00 | 0.00 | 0.00 | 92 | 1016.8 |
| 20260901103701 | 64 | 153 | 3.0 | 5.0 | 0.00 | 0.00 | 0.00 | 92 | 1016.8 |
| 20260901103258 | 64 | 21 | 1.0 | 2.0 | 0.00 | 0.00 | 0.00 | 92 | 1016.8 |
| 20260901103151 | 64 | 302 | 1.0 | 2.0 | 0.00 | 0.00 | 0.00 | 92 | 1016.8 |
| 20260901102720 | 64 | 302 | 0.0 | 2.0 | 0.00 | 0.00 | 0.00 | 92 | 1017.0 |
| 20260901102254 | 64 | 302 | 0.0 | 3.0 | 0.00 | 0.00 | 0.00 | 92 | 1017.0 |
| 20260901102227 | 64 | 302 | 1.0 | 3.0 | 0.00 | 0.00 | 0.00 | 91 | 1017.0 |
| 20260901101700 | 64 | 302 | 2.0 | 3.0 | 0.00 | 0.00 | 0.00 | 91 | 1017.1 |
| 20260901101257 | 64 | 302 | 0.0 | 2.0 | 0.00 | 0.00 | 0.00 | 91 | 1017.1 |
| 20260901101207 | 64 | 302 | 0.0 | 2.0 | 0.00 | 0.00 | 0.00 | 91 | 1017.1 |
| 20260901100657 | 64 | 302 | 1.0 | 2.0 | 0.00 | 0.00 | 0.00 | 91 | 1017.1 |
| 20260901100312 | 64 | 281 | 1.0 | 2.0 | 0.00 | 0.00 | 0.00 | 91 | 1017.1 |
| 20260901100203 | 64 | 281 | 1.0 | 2.0 | 0.00 | 0.00 | 0.00 | 91 | 1017.1 |
| 20260901095652 | 65 | 297 | 1.0 | 3.0 | 0.00 | 0.00 | 0.00 | 91 | 1017.2 |
| 20260901095309 | 65 | 298 | 2.0 | 4.0 | 0.00 | 0.00 | 0.00 | 90 | 1017.2 |
| 20260901095222 | 65 | 298 | 2.0 | 4.0 | 0.00 | 0.00 | 0.00 | 90 | 1017.2 |
| 20260901094651 | 65 | 298 | 3.0 | 4.0 | 0.00 | 0.00 | 0.00 | 90 | 1017.3 |
| 20260901094307 | 65 | 289 | 2.0 | 3.0 | 0.00 | 0.00 | 0.00 | 89 | 1017.2 |
| 20260901094158 | 65 | 284 | 2.0 | 3.0 | 0.00 | 0.00 | 0.00 | 89 | 1017.3 |
| 20260901093706 | 65 | 308 | 0.0 | 5.0 | 0.00 | 0.00 | 0.00 | 88 | 1017.3 |
| 20260901093304 | 65 | 318 | 3.0 | 5.0 | 0.00 | 0.00 | 0.00 | 88 | 1017.3 |
| 20260901093159 | 65 | 303 | 4.0 | 5.0 | 0.00 | 0.00 | 0.00 | 88 | 1017.3 |
| 20260901092709 | 66 | 296 | 3.0 | 4.0 | 0.00 | 0.00 | 0.00 | 88 | 1017.3 |
| 20260901092307 | 66 | 255 | 1.0 | 5.0 | 0.00 | 0.00 | 0.00 | 87 | 1017.4 |
| 20260901092157 | 66 | 340 | 1.0 | 5.0 | 0.00 | 0.00 | 0.00 | 87 | 1017.3 |
| 20260901091707 | 66 | 323 | 3.0 | 5.0 | 0.00 | 0.00 | 0.00 | 87 | 1017.3 |
| 20260901091304 | 66 | 312 | 3.0 | 5.0 | 0.00 | 0.00 | 0.00 | 87 | 1017.4 |
| 20260901091157 | 66 | 303 | 3.0 | 5.0 | 0.00 | 0.00 | 0.00 | 87 | 1017.4 |
| 20260901090707 | 66 | 288 | 4.0 | 5.0 | 0.00 | 0.00 | 0.00 | 86 | 1017.4 |
| 20260901090303 | 66 | 326 | 4.0 | 5.0 | 0.00 | 0.00 | 0.00 | 87 | 1017.5 |
| 20260901090155 | 66 | 329 | 4.0 | 4.0 | 0.00 | 0.00 | 0.00 | 87 | 1017.4 |
| 20260901085705 | 66 | 337 | 3.0 | 4.0 | 0.00 | 0.01 | 0.00 | 86 | 1017.4 |
| 20260901085300 | 66 | 311 | 3.0 | 5.0 | 0.00 | 0.01 | 0.00 | 86 | 1017.4 |
| 20260901085153 | 66 | 290 | 3.0 | 5.0 | 0.00 | 0.01 | 0.00 | 86 | 1017.4 |
| 20260901084707 | 67 | 279 | 3.0 | 5.0 | 0.00 | 0.01 | 0.00 | 85 | 1017.5 |
| 20260901084320 | 67 | 293 | 4.0 | 5.0 | 0.00 | 0.01 | 0.00 | 85 | 1017.6 |
| 20260901084155 | 67 | 296 | 4.0 | 5.0 | 0.00 | 0.01 | 0.00 | 85 | 1017.6 |
| 20260901083705 | 67 | 265 | 3.0 | 5.0 | 0.00 | 0.01 | 0.00 | 84 | 1017.6 |
| 20260901083301 | 67 | 295 | 4.0 | 5.0 | 0.00 | 0.01 | 0.00 | 83 | 1017.7 |
| 20260901083214 | 67 | 304 | 3.0 | 5.0 | 0.00 | 0.01 | 0.00 | 83 | 1017.6 |
| 20260901082703 | 68 | 267 | 3.0 | 7.0 | 0.00 | 0.01 | 0.00 | 83 | 1017.7 |
| 20260901082318 | 68 | 285 | 4.0 | 8.0 | 0.00 | 0.01 | 0.00 | 83 | 1017.8 |
| 20260901082210 | 68 | 290 | 4.0 | 9.0 | 0.00 | 0.01 | 0.00 | 83 | 1017.8 |
| 20260901081700 | 68 | 295 | 5.0 | 10.0 | 0.00 | 0.01 | 0.00 | 82 | 1018.0 |
| 20260901081254 | 68 | 277 | 6.0 | 11.0 | 0.00 | 0.01 | 0.00 | 82 | 1018.0 |
| 20260901081207 | 68 | 289 | 7.0 | 11.0 | 0.00 | 0.01 | 0.00 | 82 | 1018.0 |
| 20260901080657 | 68 | 281 | 7.0 | 11.0 | 0.00 | 0.01 | 0.00 | 82 | 1018.1 |
| 20260901080254 | 68 | 264 | 7.0 | 11.0 | 0.00 | 0.01 | 0.00 | 81 | 1018.2 |
| 20260901080226 | 68 | 323 | 7.0 | 11.0 | 0.00 | 0.01 | 0.00 | 81 | 1018.1 |
| 20260901075655 | 69 | 288 | 8.0 | 13.0 | 0.00 | 0.14 | 0.00 | 81 | 1018.3 |
| 20260901075332 | 69 | 304 | 8.0 | 13.0 | 0.00 | 0.14 | 0.00 | 81 | 1018.3 |
| 20260901075203 | 69 | 267 | 9.0 | 13.0 | 0.00 | 0.14 | 0.00 | 80 | 1018.4 |
| 20260901074653 | 69 | 284 | 9.0 | 13.0 | 0.00 | 0.14 | 0.00 | 80 | 1018.4 |
| 20260901074308 | 69 | 297 | 10.0 | 13.0 | 0.00 | 0.14 | 0.00 | 79 | 1018.3 |
| 20260901074205 | 69 | 302 | 9.0 | 13.0 | 0.00 | 0.14 | 0.00 | 79 | 1018.3 |
| 20260901073656 | 69 | 295 | 9.0 | 13.0 | 0.00 | 0.14 | 0.00 | 79 | 1018.3 |
| 20260901073312 | 69 | 292 | 8.0 | 14.0 | 0.00 | 0.14 | 0.00 | 78 | 1018.3 |
| 20260901073223 | 69 | 279 | 8.0 | 14.0 | 0.00 | 0.14 | 0.00 | 78 | 1018.3 |
| 20260901072651 | 70 | 262 | 10.0 | 15.0 | 0.00 | 0.14 | 0.00 | 78 | 1018.4 |
| 20260901072309 | 70 | 263 | 9.0 | 15.0 | 0.00 | 0.14 | 0.00 | 77 | 1018.4 |
| 20260901072200 | 70 | 299 | 9.0 | 15.0 | 0.00 | 0.14 | 0.00 | 77 | 1018.4 |
| 20260901071710 | 70 | 276 | 7.0 | 18.0 | 0.00 | 0.14 | 0.00 | 77 | 1018.4 |
| 20260901071306 | 70 | 262 | 11.0 | 18.0 | 0.00 | 0.14 | 0.00 | 76 | 1018.4 |
| 20260901071159 | 70 | 293 | 13.0 | 18.0 | 0.00 | 0.14 | 0.00 | 76 | 1018.4 |
| 20260901070710 | 70 | 300 | 8.0 | 18.0 | 0.00 | 0.14 | 0.00 | 76 | 1018.4 |
| 20260901070306 | 71 | 284 | 11.0 | 21.0 | 0.00 | 0.14 | 0.00 | 76 | 1018.4 |
| 20260901070159 | 71 | 269 | 10.0 | 21.0 | 0.00 | 0.14 | 0.00 | 76 | 1018.4 |
| 20260901065653 | 71 | 294 | 13.0 | 21.0 | 0.00 | 0.34 | 0.00 | 77 | 1018.4 |
| 20260901065306 | 70 | 288 | 12.0 | 21.0 | 0.00 | 0.34 | 0.00 | 77 | 1018.3 |
| 20260901065202 | 70 | 300 | 13.0 | 21.0 | 0.00 | 0.34 | 0.00 | 78 | 1018.3 |
| 20260901064731 | 70 | 290 | 10.0 | 16.0 | 0.00 | 0.34 | 0.00 | 83 | 1018.5 |
| 20260901064323 | 70 | 259 | 9.0 | 16.0 | 0.00 | 0.34 | 0.00 | 83 | 1018.4 |
| 20260901064218 | 70 | 284 | 8.0 | 10.0 | 0.00 | 0.34 | 0.00 | 83 | 1018.3 |
| 20260901063706 | 70 | 332 | 5.0 | 8.0 | 0.00 | 0.34 | 0.00 | 81 | 1017.7 |
| 20260901063303 | 70 | 302 | 3.0 | 5.0 | 0.00 | 0.34 | 0.00 | 82 | 1017.5 |
| 20260901063156 | 70 | 309 | 2.0 | 5.0 | 0.00 | 0.34 | 0.00 | 82 | 1017.4 |
| 20260901062705 | 70 | 163 | 4.0 | 6.0 | 0.00 | 0.34 | 0.00 | 81 | 1017.3 |
| 20260901062309 | 71 | 155 | 5.0 | 7.0 | 0.00 | 0.34 | 0.00 | 81 | 1017.2 |
| 20260901062155 | 71 | 159 | 5.0 | 7.0 | 0.00 | 0.34 | 0.00 | 80 | 1017.2 |
| 20260901061704 | 71 | 150 | 5.0 | 7.0 | 0.00 | 0.34 | 0.00 | 80 | 1017.1 |
| 20260901061301 | 71 | 111 | 1.0 | 5.0 | 0.00 | 0.34 | 0.00 | 78 | 1017.1 |
| 20260901061154 | 71 | 128 | 1.0 | 6.0 | 0.00 | 0.34 | 0.00 | 79 | 1017.1 |
| 20260901060705 | 71 | 278 | 2.0 | 6.0 | 0.00 | 0.34 | 0.00 | 78 | 1017.2 |
| 20260901060302 | 72 | 308 | 3.0 | 7.0 | 0.00 | 0.34 | 0.00 | 80 | 1017.3 |
| 20260901060154 | 72 | 269 | 2.0 | 7.0 | 0.00 | 0.34 | 0.00 | 80 | 1017.3 |
| 20260901055708 | 72 | 165 | 4.0 | 7.0 | 0.00 | 0.34 | 0.34 | 80 | 1017.2 |
| 20260901055301 | 72 | 132 | 1.0 | 3.0 | 0.00 | 0.34 | 0.34 | 78 | 1017.1 |
| 20260901055157 | 72 | 144 | 0.0 | 1.0 | 0.00 | 0.34 | 0.34 | 78 | 1017.0 |
| 20260901054707 | 72 | 14 | 0.0 | 2.0 | 0.00 | 0.34 | 0.34 | 78 | 1016.9 |
| 20260901054303 | 72 | 14 | 0.0 | 3.0 | 0.00 | 0.34 | 0.34 | 75 | 1016.7 |
| 20260901054156 | 72 | 14 | 0.0 | 3.0 | 0.00 | 0.34 | 0.34 | 73 | 1016.7 |
| 20260901053705 | 72 | 15 | 1.0 | 5.0 | 0.00 | 0.34 | 0.34 | 72 | 1016.6 |
| 20260901053302 | 72 | 22 | 3.0 | 5.0 | 0.00 | 0.34 | 0.34 | 74 | 1016.5 |
| 20260901053156 | 72 | 17 | 3.0 | 5.0 | 0.00 | 0.34 | 0.34 | 74 | 1016.5 |
| 20260901052704 | 72 | 27 | 2.0 | 4.0 | 0.00 | 0.34 | 0.34 | 75 | 1016.4 |
| 20260901052300 | 73 | 344 | 2.0 | 4.0 | 0.00 | 0.34 | 0.34 | 75 | 1016.4 |
| 20260901052154 | 73 | 329 | 2.0 | 4.0 | 0.00 | 0.34 | 0.34 | 75 | 1016.3 |
| 20260901051704 | 73 | 347 | 2.0 | 5.0 | 0.00 | 0.34 | 0.34 | 73 | 1016.3 |
| 20260901051320 | 73 | 31 | 4.0 | 6.0 | 0.00 | 0.34 | 0.34 | 70 | 1016.3 |
| 20260901051155 | 72 | 37 | 4.0 | 6.0 | 0.00 | 0.34 | 0.34 | 70 | 1016.3 |
| 20260901050706 | 73 | 40 | 4.0 | 5.0 | 0.00 | 0.34 | 0.34 | 71 | 1016.3 |
| 20260901050302 | 73 | 45 | 3.0 | 4.0 | 0.00 | 0.34 | 0.34 | 71 | 1016.3 |
| 20260901050155 | 73 | 44 | 3.0 | 4.0 | 0.00 | 0.34 | 0.34 | 71 | 1016.3 |
| 20260901045705 | 73 | 36 | 2.0 | 4.0 | 0.00 | 0.34 | 0.34 | 73 | 1016.1 |
| 20260901045258 | 73 | 360 | 2.0 | 4.0 | 0.00 | 0.34 | 0.34 | 71 | 1016.1 |
| 20260901045209 | 73 | 355 | 2.0 | 3.0 | 0.00 | 0.34 | 0.34 | 71 | 1016.1 |
| 20260901044658 | 74 | 360 | 2.0 | 5.0 | 0.00 | 0.34 | 0.34 | 70 | 1016.1 |
| 20260901044254 | 74 | 30 | 3.0 | 6.0 | 0.00 | 0.34 | 0.34 | 67 | 1016.3 |
| 20260901044207 | 74 | 34 | 3.0 | 6.0 | 0.00 | 0.34 | 0.34 | 67 | 1016.3 |
| 20260901043656 | 74 | 61 | 3.0 | 5.0 | 0.00 | 0.34 | 0.34 | 68 | 1016.4 |
| 20260901043252 | 74 | 67 | 3.0 | 6.0 | 0.00 | 0.34 | 0.34 | 67 | 1016.5 |
| 20260901043206 | 74 | 69 | 3.0 | 8.0 | 0.00 | 0.34 | 0.34 | 67 | 1016.5 |
| 20260901042659 | 74 | 44 | 4.0 | 8.0 | 0.00 | 0.34 | 0.34 | 67 | 1016.3 |
| 20260901042253 | 74 | 54 | 6.0 | 8.0 | 0.00 | 0.34 | 0.34 | 67 | 1016.3 |
| 20260901042208 | 74 | 38 | 6.0 | 9.0 | 0.00 | 0.34 | 0.34 | 66 | 1016.3 |
| 20260901041658 | 74 | 37 | 4.0 | 11.0 | 0.00 | 0.34 | 0.34 | 63 | 1016.4 |
| 20260901041315 | 74 | 35 | 5.0 | 12.0 | 0.00 | 0.34 | 0.34 | 64 | 1016.5 |
| 20260901041226 | 74 | 54 | 5.0 | 12.0 | 0.00 | 0.34 | 0.34 | 64 | 1016.4 |
| 20260901040655 | 73 | 42 | 6.0 | 16.0 | 0.00 | 0.34 | 0.34 | 66 | 1016.4 |
| 20260901040251 | 73 | 336 | 5.0 | 22.0 | 0.00 | 0.34 | 0.34 | 67 | 1016.2 |
| 20260901040205 | 73 | 351 | 5.0 | 22.0 | 0.00 | 0.34 | 0.34 | 67 | 1016.2 |
| 20260901035713 | 73 | 337 | 14.0 | 22.0 | 0.00 | 0.34 | 0.34 | 65 | 1015.9 |
| 20260901035327 | 72 | 355 | 13.0 | 23.0 | 0.00 | 0.34 | 0.34 | 69 | 1016.0 |
| 20260901035219 | 72 | 16 | 14.0 | 23.0 | 0.00 | 0.34 | 0.34 | 69 | 1016.0 |
| 20260901034728 | 72 | 329 | 16.0 | 23.0 | 0.00 | 0.34 | 0.34 | 71 | 1016.5 |
| 20260901034301 | 72 | 331 | 16.0 | 21.0 | 0.00 | 0.34 | 0.34 | 73 | 1016.8 |
| 20260901034155 | 72 | 315 | 14.0 | 21.0 | 0.00 | 0.34 | 0.34 | 73 | 1016.8 |
| 20260901033704 | 72 | 319 | 14.0 | 18.0 | 0.00 | 0.34 | 0.34 | 75 | 1017.7 |
| 20260901033301 | 72 | 303 | 12.0 | 16.0 | 0.00 | 0.34 | 0.34 | 75 | 1018.3 |
| 20260901033154 | 73 | 318 | 12.0 | 16.0 | 0.00 | 0.34 | 0.34 | 75 | 1018.5 |
| 20260901032723 | 73 | 273 | 11.0 | 18.0 | 0.00 | 0.34 | 0.34 | 73 | 1018.8 |
| 20260901032258 | 73 | 266 | 10.0 | 19.0 | 0.00 | 0.34 | 0.34 | 74 | 1018.5 |
| 20260901032211 | 73 | 286 | 10.0 | 19.0 | 0.00 | 0.34 | 0.34 | 74 | 1018.5 |
| 20260901031658 | 74 | 279 | 11.0 | 23.0 | 0.00 | 0.34 | 0.34 | 71 | 1018.4 |
| 20260901031255 | 75 | 271 | 12.0 | 32.0 | 0.00 | 0.34 | 0.34 | 68 | 1018.5 |
| 20260901031152 | 75 | 277 | 13.0 | 32.0 | 0.00 | 0.34 | 0.34 | 68 | 1018.5 |
| 20260901030701 | 75 | 243 | 18.0 | 32.0 | 0.00 | 0.34 | 0.34 | 68 | 1018.5 |
| 20260901030257 | 75 | 291 | 13.0 | 26.0 | 0.00 | 0.34 | 0.34 | 70 | 1018.4 |
| 20260901030228 | 75 | 317 | 13.0 | 26.0 | 0.00 | 0.34 | 0.34 | 70 | 1018.5 |
| 20260901025657 | 75 | 244 | 12.0 | 23.0 | 0.00 | 0.34 | 0.34 | 68 | 1018.7 |
| 20260901025253 | 75 | 267 | 13.0 | 23.0 | 0.00 | 0.34 | 0.34 | 67 | 1018.5 |
| 20260901025206 | 75 | 295 | 14.0 | 25.0 | 0.00 | 0.34 | 0.34 | 67 | 1018.5 |
| 20260901024652 | 75 | 229 | 15.0 | 25.0 | 0.00 | 0.34 | 0.34 | 68 | 1018.7 |
| 20260901024307 | 75 | 229 | 17.0 | 25.0 | 0.00 | 0.34 | 0.34 | 67 | 1018.8 |
| 20260901024201 | 75 | 244 | 17.0 | 25.0 | 0.00 | 0.34 | 0.34 | 67 | 1018.8 |
| 20260901023710 | 75 | 238 | 17.0 | 31.0 | 0.00 | 0.34 | 0.34 | 67 | 1018.8 |
| 20260901023307 | 75 | 233 | 17.0 | 31.0 | 0.00 | 0.34 | 0.34 | 67 | 1018.8 |
| 20260901023159 | 76 | 256 | 20.0 | 31.0 | 0.00 | 0.34 | 0.34 | 67 | 1018.9 |
| 20260901022709 | 76 | 228 | 11.0 | 18.0 | 0.00 | 0.34 | 0.34 | 68 | 1018.5 |
| 20260901022306 | 77 | 282 | 12.0 | 22.0 | 0.00 | 0.34 | 0.34 | 67 | 1018.3 |
| 20260901022218 | 77 | 261 | 12.0 | 22.0 | 0.00 | 0.34 | 0.34 | 66 | 1018.3 |
| 20260901021704 | 77 | 300 | 13.0 | 22.0 | 0.00 | 0.34 | 0.34 | 67 | 1017.8 |
| 20260901021301 | 78 | 249 | 10.0 | 20.0 | 0.00 | 0.34 | 0.34 | 68 | 1017.7 |
| 20260901021158 | 78 | 250 | 9.0 | 20.0 | 0.00 | 0.34 | 0.34 | 68 | 1017.7 |
| 20260901020708 | 79 | 278 | 14.0 | 20.0 | 0.00 | 0.34 | 0.34 | 73 | 1017.8 |
| 20260901020305 | 79 | 253 | 5.0 | 9.0 | 0.00 | 0.34 | 0.34 | 71 | 1017.5 |
| 20260901020157 | 79 | 258 | 2.0 | 5.0 | 0.00 | 0.34 | 0.34 | 70 | 1017.3 |
| 20260901015727 | 80 | 153 | 1.0 | 5.0 | 0.00 | 0.34 | 0.34 | 69 | 1016.8 |
| 20260901015305 | 80 | 106 | 0.0 | 3.0 | 0.00 | 0.34 | 0.34 | 68 | 1016.8 |
| 20260901015154 | 80 | 106 | 0.0 | 3.0 | 0.00 | 0.34 | 0.34 | 68 | 1016.8 |
| 20260901014704 | 80 | 94 | 1.0 | 4.0 | 0.00 | 0.34 | 0.34 | 70 | 1016.5 |
| 20260901014301 | 81 | 90 | 2.0 | 5.0 | 0.00 | 0.34 | 0.34 | 66 | 1016.2 |
| 20260901014214 | 81 | 86 | 2.0 | 7.0 | 0.00 | 0.34 | 0.34 | 66 | 1016.2 |
| 20260901013703 | 81 | 77 | 4.0 | 8.0 | 0.00 | 0.34 | 0.34 | 66 | 1016.0 |
| 20260901013259 | 81 | 82 | 5.0 | 10.0 | 0.00 | 0.34 | 0.34 | 65 | 1015.8 |
| 20260901013212 | 81 | 75 | 6.0 | 10.0 | 0.00 | 0.34 | 0.34 | 65 | 1015.8 |
| 20260901012701 | 81 | 80 | 5.0 | 8.0 | 0.00 | 0.34 | 0.34 | 65 | 1015.6 |
| 20260901012318 | 80 | 79 | 6.0 | 8.0 | 0.00 | 0.34 | 0.34 | 66 | 1015.5 |
| 20260901012154 | 80 | 88 | 6.0 | 8.0 | 0.00 | 0.34 | 0.34 | 66 | 1015.5 |
| 20260901011702 | 80 | 86 | 3.0 | 5.0 | 0.00 | 0.34 | 0.34 | 68 | 1015.5 |
| 20260901011259 | 80 | 74 | 3.0 | 5.0 | 0.00 | 0.34 | 0.34 | 67 | 1015.6 |
| 20260901011153 | 80 | 73 | 3.0 | 4.0 | 0.00 | 0.34 | 0.34 | 67 | 1015.6 |
| 20260901010703 | 81 | 72 | 3.0 | 5.0 | 0.00 | 0.34 | 0.34 | 67 | 1015.7 |
| 20260901010320 | 81 | 87 | 3.0 | 5.0 | 0.00 | 0.34 | 0.34 | 67 | 1015.7 |
| 20260901010210 | 81 | 82 | 3.0 | 5.0 | 0.00 | 0.34 | 0.34 | 67 | 1015.7 |
| 20260901005700 | 81 | 80 | 3.0 | 4.0 | 0.00 | 0.34 | 0.34 | 67 | 1015.8 |
| 20260901005256 | 81 | 109 | 2.0 | 4.0 | 0.00 | 0.34 | 0.34 | 66 | 1015.9 |
| 20260901005209 | 81 | 107 | 3.0 | 4.0 | 0.00 | 0.34 | 0.34 | 66 | 1015.8 |
| 20260901004658 | 82 | 175 | 2.0 | 6.0 | 0.00 | 0.34 | 0.34 | 65 | 1015.7 |
| 20260901004256 | 82 | 22 | 2.0 | 7.0 | 0.00 | 0.34 | 0.34 | 64 | 1015.6 |
| 20260901004209 | 82 | 162 | 2.0 | 7.0 | 0.00 | 0.34 | 0.34 | 64 | 1015.6 |
| 20260901003718 | 83 | 90 | 4.0 | 10.0 | 0.00 | 0.34 | 0.34 | 63 | 1015.5 |
| 20260901003255 | 83 | 82 | 5.0 | 10.0 | 0.00 | 0.34 | 0.34 | 61 | 1015.4 |
| 20260901003228 | 83 | 95 | 5.0 | 10.0 | 0.00 | 0.34 | 0.34 | 61 | 1015.3 |
| 20260901002656 | 84 | 75 | 6.0 | 8.0 | 0.00 | 0.34 | 0.34 | 61 | 1015.4 |
| 20260901002253 | 84 | 88 | 5.0 | 8.0 | 0.00 | 0.34 | 0.34 | 61 | 1015.5 |
| 20260901002205 | 84 | 97 | 5.0 | 7.0 | 0.00 | 0.34 | 0.34 | 60 | 1015.5 |
| 20260901001659 | 84 | 130 | 3.0 | 7.0 | 0.00 | 0.34 | 0.34 | 60 | 1015.6 |
| 20260901001313 | 85 | 92 | 3.0 | 8.0 | 0.00 | 0.34 | 0.34 | 59 | 1015.6 |
| 20260901001229 | 85 | 105 | 4.0 | 8.0 | 0.00 | 0.34 | 0.34 | 59 | 1015.6 |
| 20260901000658 | 85 | 76 | 4.0 | 8.0 | 0.00 | 0.34 | 0.34 | 59 | 1015.5 |
| 20260901000315 | 85 | 121 | 5.0 | 9.0 | 0.00 | 0.34 | 0.34 | 58 | 1015.5 |
| 20260901000207 | 86 | 98 | 5.0 | 9.0 | 0.00 | 0.34 | 0.34 | 57 | 1015.6 |
| 20260831235657 | 86 | 61 | 6.0 | 9.0 | 0.00 | 0.34 | 0.34 | 57 | 1015.6 |
| 20260831235254 | 86 | 79 | 5.0 | 8.0 | 0.00 | 0.34 | 0.34 | 56 | 1015.6 |
| 20260831235208 | 86 | 76 | 6.0 | 9.0 | 0.00 | 0.34 | 0.34 | 56 | 1015.6 |
| 20260831234656 | 87 | 85 | 6.0 | 11.0 | 0.00 | 0.34 | 0.34 | 56 | 1015.5 |
| 20260831234311 | 87 | 71 | 8.0 | 11.0 | 0.00 | 0.34 | 0.34 | 54 | 1015.6 |
| 20260831234203 | 87 | 76 | 7.0 | 13.0 | 0.00 | 0.34 | 0.34 | 54 | 1015.5 |
| 20260831233711 | 88 | 58 | 5.0 | 13.0 | 0.00 | 0.34 | 0.34 | 52 | 1015.5 |
| 20260831233328 | 88 | 82 | 6.0 | 13.0 | 0.00 | 0.34 | 0.34 | 50 | 1015.4 |
| 20260831233220 | 88 | 5 | 7.0 | 12.0 | 0.00 | 0.34 | 0.34 | 49 | 1015.4 |
| 20260831232708 | 89 | 84 | 8.0 | 11.0 | 0.00 | 0.34 | 0.34 | 51 | 1015.5 |
| 20260831232306 | 89 | 86 | 5.0 | 12.0 | 0.00 | 0.34 | 0.34 | 48 | 1015.5 |
| 20260831232217 | 89 | 82 | 6.0 | 12.0 | 0.00 | 0.34 | 0.34 | 49 | 1015.4 |
| 20260831231706 | 89 | 92 | 7.0 | 11.0 | 0.00 | 0.34 | 0.34 | 51 | 1015.4 |
| 20260831231303 | 89 | 78 | 8.0 | 11.0 | 0.00 | 0.34 | 0.34 | 49 | 1015.3 |
| 20260831231200 | 89 | 88 | 8.0 | 11.0 | 0.00 | 0.34 | 0.34 | 49 | 1015.3 |
| 20260831230710 | 90 | 78 | 8.0 | 15.0 | 0.00 | 0.34 | 0.34 | 48 | 1015.4 |
| 20260831230306 | 90 | 92 | 8.0 | 15.0 | 0.00 | 0.34 | 0.34 | 49 | 1015.3 |
| 20260831230157 | 90 | 74 | 8.0 | 15.0 | 0.00 | 0.34 | 0.34 | 50 | 1015.4 |
| 20260831225727 | 90 | 78 | 9.0 | 12.0 | 0.00 | 0.34 | 0.34 | 49 | 1015.3 |
| 20260831225306 | 90 | 84 | 7.0 | 10.0 | 0.00 | 0.34 | 0.34 | 49 | 1015.4 |
| 20260831225155 | 90 | 84 | 6.0 | 12.0 | 0.00 | 0.34 | 0.34 | 49 | 1015.4 |
| 20260831224705 | 90 | 65 | 5.0 | 13.0 | 0.00 | 0.34 | 0.34 | 49 | 1015.4 |
| 20260831224303 | 90 | 92 | 9.0 | 13.0 | 0.00 | 0.34 | 0.34 | 51 | 1015.4 |
| 20260831224156 | 90 | 69 | 7.0 | 12.0 | 0.00 | 0.34 | 0.34 | 50 | 1015.4 |
| 20260831223706 | 90 | 84 | 7.0 | 12.0 | 0.00 | 0.34 | 0.34 | 49 | 1015.6 |
| 20260831223302 | 90 | 87 | 6.0 | 12.0 | 0.00 | 0.34 | 0.34 | 49 | 1015.6 |
| 20260831223154 | 90 | 78 | 7.0 | 12.0 | 0.00 | 0.34 | 0.34 | 51 | 1015.6 |
| 20260831222708 | 90 | 59 | 7.0 | 16.0 | 0.00 | 0.34 | 0.34 | 50 | 1015.7 |
| 20260831222305 | 90 | 194 | 9.0 | 16.0 | 0.00 | 0.34 | 0.34 | 49 | 1015.7 |
| 20260831222218 | 90 | 116 | 9.0 | 16.0 | 0.00 | 0.34 | 0.34 | 49 | 1015.8 |
| 20260831221727 | 91 | 63 | 9.0 | 13.0 | 0.00 | 0.34 | 0.34 | 49 | 1015.8 |
| 20260831221319 | 91 | 88 | 6.0 | 16.0 | 0.00 | 0.34 | 0.34 | 48 | 1015.8 |
| 20260831221154 | 91 | 242 | 7.0 | 16.0 | 0.00 | 0.34 | 0.34 | 49 | 1015.8 |
| 20260831220704 | 91 | 62 | 7.0 | 12.0 | 0.00 | 0.34 | 0.34 | 48 | 1015.8 |
| 20260831220301 | 91 | 65 | 4.0 | 8.0 | 0.00 | 0.34 | 0.34 | 48 | 1015.9 |
| 20260831220153 | 91 | 51 | 3.0 | 6.0 | 0.00 | 0.34 | 0.34 | 46 | 1015.9 |
| 20260831215705 | 92 | 57 | 3.0 | 5.0 | 0.00 | 0.34 | 0.34 | 44 | 1016.0 |
| 20260831215300 | 92 | 77 | 2.0 | 6.0 | 0.00 | 0.34 | 0.34 | 44 | 1016.1 |
| 20260831215153 | 92 | 142 | 3.0 | 8.0 | 0.00 | 0.34 | 0.34 | 47 | 1016.1 |
| 20260831214725 | 92 | 68 | 1.0 | 8.0 | 0.00 | 0.34 | 0.34 | 42 | 1016.1 |
| 20260831214320 | 92 | 151 | 3.0 | 6.0 | 0.00 | 0.34 | 0.34 | 41 | 1016.2 |
| 20260831214152 | 92 | 34 | 4.0 | 8.0 | 0.00 | 0.34 | 0.34 | 45 | 1016.2 |
| 20260831213701 | 92 | 34 | 3.0 | 8.0 | 0.00 | 0.34 | 0.34 | 47 | 1016.2 |
| 20260831213256 | 92 | 88 | 4.0 | 6.0 | 0.00 | 0.34 | 0.34 | 47 | 1016.1 |
| 20260831213227 | 92 | 45 | 4.0 | 6.0 | 0.00 | 0.34 | 0.34 | 43 | 1016.2 |
| 20260831212656 | 92 | 56 | 3.0 | 9.0 | 0.00 | 0.34 | 0.34 | 43 | 1016.2 |
| 20260831212308 | 92 | 72 | 6.0 | 9.0 | 0.00 | 0.34 | 0.34 | 42 | 1016.2 |
| 20260831212205 | 92 | 61 | 6.0 | 9.0 | 0.00 | 0.34 | 0.34 | 45 | 1016.3 |
| 20260831211655 | 92 | 220 | 1.0 | 9.0 | 0.00 | 0.34 | 0.34 | 41 | 1016.3 |
| 20260831211253 | 91 | 43 | 5.0 | 9.0 | 0.00 | 0.34 | 0.34 | 44 | 1016.4 |
| 20260831211206 | 92 | 44 | 4.0 | 9.0 | 0.00 | 0.34 | 0.34 | 43 | 1016.4 |
| 20260831210657 | 91 | 28 | 4.0 | 6.0 | 0.00 | 0.34 | 0.34 | 45 | 1016.5 |
| 20260831210312 | 91 | 14 | 3.0 | 6.0 | 0.00 | 0.34 | 0.34 | 46 | 1016.5 |
| 20260831210204 | 91 | 329 | 3.0 | 6.0 | 0.00 | 0.34 | 0.34 | 46 | 1016.5 |
| 20260831205713 | 91 | 64 | 4.0 | 6.0 | 0.00 | 0.34 | 0.34 | 47 | 1016.6 |
| 20260831205309 | 91 | 46 | 3.0 | 4.0 | 0.00 | 0.34 | 0.34 | 45 | 1016.6 |
| 20260831205202 | 91 | 72 | 2.0 | 4.0 | 0.00 | 0.34 | 0.34 | 45 | 1016.6 |
| 20260831204653 | 90 | 142 | 2.0 | 5.0 | 0.00 | 0.34 | 0.34 | 44 | 1016.7 |
| 20260831204327 | 91 | 45 | 2.0 | 5.0 | 0.00 | 0.34 | 0.34 | 46 | 1016.8 |
| 20260831204159 | 91 | 86 | 2.0 | 6.0 | 0.00 | 0.34 | 0.34 | 45 | 1016.8 |
| 20260831203709 | 91 | 87 | 3.0 | 6.0 | 0.00 | 0.34 | 0.34 | 49 | 1016.8 |
| 20260831203304 | 90 | 38 | 3.0 | 6.0 | 0.00 | 0.34 | 0.34 | 50 | 1016.8 |
| 20260831203157 | 90 | 61 | 3.0 | 7.0 | 0.00 | 0.34 | 0.34 | 48 | 1016.9 |
| 20260831202709 | 90 | 26 | 4.0 | 7.0 | 0.00 | 0.34 | 0.34 | 50 | 1017.0 |
| 20260831202305 | 90 | 51 | 3.0 | 7.0 | 0.00 | 0.34 | 0.34 | 52 | 1017.1 |
| 20260831202158 | 90 | 26 | 3.0 | 7.0 | 0.00 | 0.34 | 0.34 | 49 | 1017.1 |
| 20260831201706 | 90 | 56 | 2.0 | 8.0 | 0.00 | 0.34 | 0.34 | 51 | 1017.1 |
| 20260831201302 | 90 | 60 | 5.0 | 10.0 | 0.00 | 0.34 | 0.34 | 51 | 1017.2 |
| 20260831201154 | 90 | 62 | 3.0 | 10.0 | 0.00 | 0.34 | 0.34 | 53 | 1017.1 |
| 20260831200724 | 90 | 42 | 4.0 | 10.0 | 0.00 | 0.34 | 0.34 | 47 | 1017.2 |
| 20260831200258 | 90 | 54 | 6.0 | 9.0 | 0.00 | 0.34 | 0.34 | 49 | 1017.2 |
| 20260831200210 | 90 | 63 | 4.0 | 9.0 | 0.00 | 0.34 | 0.34 | 51 | 1017.3 |
| 20260831195659 | 89 | 63 | 3.0 | 10.0 | 0.00 | 0.34 | 0.34 | 52 | 1017.3 |
| 20260831195254 | 90 | 70 | 4.0 | 10.0 | 0.00 | 0.34 | 0.34 | 50 | 1017.4 |
| 20260831195206 | 90 | 51 | 5.0 | 10.0 | 0.00 | 0.34 | 0.34 | 50 | 1017.4 |
| 20260831194655 | 90 | 34 | 4.0 | 9.0 | 0.00 | 0.34 | 0.34 | 48 | 1017.3 |
| 20260831194309 | 89 | 50 | 4.0 | 7.0 | 0.00 | 0.34 | 0.34 | 49 | 1017.3 |
| 20260831194201 | 89 | 38 | 2.0 | 6.0 | 0.00 | 0.34 | 0.34 | 50 | 1017.3 |
| 20260831193710 | 89 | 54 | 4.0 | 6.0 | 0.00 | 0.34 | 0.34 | 49 | 1017.4 |
| 20260831193327 | 89 | 52 | 3.0 | 6.0 | 0.00 | 0.34 | 0.34 | 50 | 1017.4 |
| 20260831193159 | 89 | 57 | 1.0 | 6.0 | 0.00 | 0.34 | 0.34 | 50 | 1017.4 |
| 20260831192727 | 89 | 12 | 3.0 | 6.0 | 0.00 | 0.34 | 0.34 | 50 | 1017.4 |
| 20260831192305 | 89 | 59 | 3.0 | 10.0 | 0.00 | 0.34 | 0.34 | 50 | 1017.4 |
| 20260831192216 | 89 | 94 | 4.0 | 10.0 | 0.00 | 0.34 | 0.34 | 50 | 1017.4 |
| 20260831191708 | 89 | 54 | 6.0 | 10.0 | 0.00 | 0.34 | 0.34 | 53 | 1017.4 |
| 20260831191259 | 90 | 65 | 2.0 | 7.0 | 0.00 | 0.34 | 0.34 | 53 | 1017.5 |
| 20260831191155 | 90 | 12 | 4.0 | 7.0 | 0.00 | 0.34 | 0.34 | 57 | 1017.6 |
| 20260831190706 | 89 | 116 | 2.0 | 7.0 | 0.00 | 0.34 | 0.34 | 54 | 1017.6 |
| 20260831190303 | 89 | 53 | 5.0 | 7.0 | 0.00 | 0.34 | 0.34 | 52 | 1017.6 |
| 20260831190155 | 89 | 50 | 3.0 | 5.0 | 0.00 | 0.34 | 0.34 | 53 | 1017.6 |
| 20260831185725 | 89 | 290 | 3.0 | 5.0 | 0.00 | 0.34 | 0.34 | 55 | 1017.7 |
| 20260831185259 | 89 | 229 | 2.0 | 8.0 | 0.00 | 0.34 | 0.34 | 53 | 1017.7 |
| 20260831185153 | 89 | 288 | 2.0 | 8.0 | 0.00 | 0.34 | 0.34 | 55 | 1017.7 |
| 20260831184703 | 88 | 304 | 5.0 | 8.0 | 0.00 | 0.34 | 0.34 | 58 | 1017.7 |
| 20260831184300 | 88 | 250 | 3.0 | 8.0 | 0.00 | 0.34 | 0.34 | 52 | 1017.8 |
| 20260831184153 | 88 | 286 | 3.0 | 8.0 | 0.00 | 0.34 | 0.34 | 51 | 1017.8 |
| 20260831183703 | 88 | 308 | 4.0 | 8.0 | 0.00 | 0.34 | 0.34 | 54 | 1017.8 |
| 20260831183259 | 88 | 309 | 4.0 | 8.0 | 0.00 | 0.34 | 0.34 | 58 | 1017.7 |
| 20260831183232 | 88 | 329 | 3.0 | 8.0 | 0.00 | 0.34 | 0.34 | 56 | 1017.7 |
| 20260831182705 | 88 | 263 | 4.0 | 9.0 | 0.00 | 0.34 | 0.34 | 55 | 1017.8 |
| 20260831182258 | 87 | 262 | 6.0 | 10.0 | 0.00 | 0.34 | 0.34 | 64 | 1017.8 |
| 20260831182215 | 87 | 306 | 6.0 | 10.0 | 0.00 | 0.34 | 0.34 | 57 | 1017.8 |
| 20260831181723 | 87 | 307 | 6.0 | 10.0 | 0.00 | 0.34 | 0.34 | 60 | 1017.8 |
| 20260831181258 | 87 | 319 | 5.0 | 8.0 | 0.00 | 0.34 | 0.34 | 58 | 1017.8 |
| 20260831181210 | 87 | 321 | 5.0 | 8.0 | 0.00 | 0.34 | 0.34 | 60 | 1017.8 |
| 20260831180700 | 87 | 347 | 4.0 | 10.0 | 0.00 | 0.34 | 0.34 | 57 | 1017.9 |
| 20260831180310 | 87 | 289 | 4.0 | 10.0 | 0.00 | 0.34 | 0.34 | 58 | 1017.9 |
| 20260831180202 | 87 | 309 | 4.0 | 10.0 | 0.00 | 0.34 | 0.34 | 57 | 1017.9 |
| 20260831175712 | 86 | 315 | 6.0 | 9.0 | 0.00 | 0.34 | 0.34 | 60 | 1017.9 |
| 20260831175309 | 86 | 343 | 5.0 | 9.0 | 0.00 | 0.34 | 0.34 | 60 | 1018.0 |
| 20260831175202 | 86 | 349 | 5.0 | 9.0 | 0.00 | 0.34 | 0.34 | 60 | 1018.0 |
| 20260831174712 | 86 | 306 | 5.0 | 10.0 | 0.00 | 0.34 | 0.34 | 63 | 1018.0 |
| 20260831174307 | 86 | 314 | 5.0 | 10.0 | 0.00 | 0.34 | 0.34 | 62 | 1018.0 |
| 20260831174159 | 86 | 338 | 4.0 | 8.0 | 0.00 | 0.34 | 0.34 | 62 | 1018.1 |
| 20260831173653 | 86 | 294 | 4.0 | 8.0 | 0.00 | 0.34 | 0.34 | 62 | 1018.1 |
| 20260831173306 | 86 | 311 | 6.0 | 9.0 | 0.00 | 0.34 | 0.34 | 63 | 1018.1 |
| 20260831173203 | 86 | 304 | 6.0 | 9.0 | 0.00 | 0.34 | 0.34 | 61 | 1018.1 |
| 20260831172713 | 85 | 309 | 4.0 | 9.0 | 0.00 | 0.34 | 0.34 | 63 | 1018.1 |
| 20260831172308 | 85 | 298 | 5.0 | 8.0 | 0.00 | 0.34 | 0.34 | 65 | 1018.1 |
| 20260831172201 | 85 | 284 | 6.0 | 8.0 | 0.00 | 0.34 | 0.34 | 65 | 1018.1 |
| 20260831171711 | 84 | 360 | 3.0 | 9.0 | 0.00 | 0.34 | 0.34 | 61 | 1018.1 |
| 20260831171308 | 84 | 325 | 3.0 | 9.0 | 0.00 | 0.34 | 0.34 | 60 | 1018.2 |
| 20260831171202 | 84 | 360 | 3.0 | 9.0 | 0.00 | 0.34 | 0.34 | 60 | 1018.2 |
| 20260831170711 | 84 | 337 | 3.0 | 5.0 | 0.00 | 0.34 | 0.34 | 59 | 1018.2 |
| 20260831170307 | 84 | 279 | 2.0 | 5.0 | 0.00 | 0.34 | 0.34 | 62 | 1018.2 |
| 20260831170158 | 84 | 306 | 1.0 | 5.0 | 0.00 | 0.34 | 0.34 | 66 | 1018.2 |
| 20260831165726 | 84 | 327 | 2.0 | 7.0 | 0.00 | 0.34 | 0.34 | 62 | 1018.3 |
| 20260831165323 | 84 | 228 | 4.0 | 7.0 | 0.00 | 0.34 | 0.34 | 61 | 1018.3 |
| 20260831165155 | 84 | 296 | 4.0 | 7.0 | 0.00 | 0.34 | 0.34 | 62 | 1018.3 |
| 20260831164706 | 84 | 284 | 3.0 | 8.0 | 0.00 | 0.34 | 0.34 | 59 | 1018.4 |
| 20260831164302 | 84 | 294 | 2.0 | 8.0 | 0.00 | 0.34 | 0.34 | 64 | 1018.4 |
| 20260831164159 | 83 | 339 | 4.0 | 8.0 | 0.00 | 0.34 | 0.34 | 64 | 1018.5 |
| 20260831163710 | 83 | 303 | 3.0 | 8.0 | 0.00 | 0.34 | 0.34 | 59 | 1018.4 |